CZ-4 DEB

Satellite information

Favourite Embed

Satellite Type and Status

DEBRISIN ORBIT

Key statistics

Satellite CZ-4 DEB at a glance.

Uptime

12885

Days in orbit

Revolutions

≈ 14.3

Per day

Orbit

SSO

Sun Synchronous Orbit

Inclination

99.2

Latest

Satellite identification and parameters

Extended collection of information and parameters for CZ-4 DEB.

Object identification

Identified? True

Debris? True

Object name: CZ-4 DEB

International designator: 1990-081AY

Object number (NORAD): 20888

Object ID (CCSDS): 20888

Country: PEOPLES REPUBLIC OF CHINA (PRC)

Current information (Y/N): Y

RCS size: MEDIUM

Orbital parameters

Period: 100.781 minutes

Inclination: 99.2115 deg

SMA: 7173.756 km

Apoapsis: 923.003 km

Periapsis: 668.24 km

RAAN: 194.8878 deg

Eccentricy: 0.01775655

Argument of periapsis: 56.6706 deg

Mean anomaly: 305.1335 deg

Mean motion: 14.28837426 rev/day

Mean motion (dot): 0.00004832 rev/day2

B* drag term: 0.0016333096 1/REarth

Two-line elements (TLE)

Creation date: Dec. 12, 2025, 10:14 a.m.

Reference frame: TEME

Reference center: EARTH

Epoch: Dec. 12, 2025, 1:47 a.m. UTC

TLE line 0: 0 CZ-4 DEB

TLE line 1: 1 20888U 90081AY 25346.07499264 .00004832 00000-0 16333-2 0 9990

TLE line 2: 2 20888 99.2115 194.8878 0177566 56.6706 305.1335 14.28837426800487

Live tracking on map

Real-time ground track for satellite CZ-4 DEB.

In-orbit conjunctions

A list of the most updated potential collisions computed for object CZ-4 DEB.

Target Orbit TCA Probability of collision Miss distance Type
CZ-6A DEB SSO 2025-10-19 12:13:32 0.0001064319 106.0 (m) DEBRIS
SAFIR 2 SSO 2025-07-05 17:51:36 0.0002946025 235.0 (m) PAYLOAD
SOLRAD 7B LEO 2024-08-17 03:44:44 0.0005443401 342.0 (m) PAYLOAD

Associated space launch

Chinese polar orbiting meteorological satellite

CZ-4 DEB was lifted into orbit during the mission ‘Long March 4A | Feng Yun 1B’, on board a Long March 4A space rocket.

The launch took place on Sept. 3, 1990, 12:53 a.m. from Launch Complex 7.

For more information about the launch, click the button.

Launch to space Long March 4A | Feng Yun 1B
Long March 4A | Feng Yun 1B

Agency: N/A

Status: Launch Successful

Launch date: Sept. 3, 1990, 12:53 a.m. UTC

Rocket: Long March 4A

Launch pad: Launch Complex 7

Location: Taiyuan Satellite Launch Center, People's Republic of China

...

Latest news about this satellite

There are no fresh news available about this satellite. Check back as we update our databases every day.


Newsletter sign-up

Weekly statistics, charts and insights to help you stay on top of the space industry.